Weather in Lipetsk

Russia / Lipetsk Oblast     52°36′31″N   39°35′57″E
temp.,
°C
wind,
m/s
gust,
m/s
humid.,
%
clouds,
%
prec.,
mm/h
press.,
hPa
HPBL,
m
23 september, thu
thu2300:00+9wsw2384100 0.0 1013160
03:00+9sw1285100 0.2 101379
06:00+8s2388100 0.0 1013133
09:00+9ssw3480100 0.0 1014432
12:00+11ssw3464100 0.1 10131168
15:00+11ssw3464100 0.5 1013953
18:00+10ssw3574100 0.3 1013228
21:00+8wsw368253 0.4 1013184
24 september, fri
fri2400:00+7ssw358759 0.0 1012138
03:00+8s3685100 0.0 1011335
06:00+7ssw3787100 0.1 1010344
09:00+8s4881100 0.3 1010590
12:00+10ssw6106694 0.1 10091255
15:00+12s795193 0.1 10071655
18:00+11s51156100 0.0 10061225
21:00+9s51077100 0.2 10061342
25 september, sat
sat2500:00+8sse4890100 0.6 1006552
03:00+8sse4992100 0.8 1001576
06:00+9sse3694100 0.4 1005357
09:00+9se2393100 0.6 1006288
12:00+10sse1288100 0.3 1007306
15:00+11nw1278100 0.4 1009562
18:00+10nnw118531 0.1 101014
21:00+8w22915 0.1 101212
26 september, sun
sun2600:00+7wsw349242 0.0 101266
03:00+8wsw3889100 0.1 1012219
06:00+8wsw379384 0.2 1012195
09:00+10w357894 0.2 1011407
12:00+8wsw1293100 1.6 1011152
15:00+9nw1292100 2.4 1011205
18:00+9nnw3692100 0.3 1012311
21:00+9nnw4991100 0.6 1013405
27 september, mon
mon2700:00+8nnw4893100 0.3 1014340
03:00+9n489081 0.7 1015337
06:00+8nnw489289 0.6 1017337
09:00+9nne5985100 0.8 1018748
12:00+9n4888100 0.3 1020485
15:00+12nne5669100 0.7 1021923
18:00+10nne598296 0.1 1022404
21:00+9nne4108595 0.1 1023432